Voltar ao catálogo

NSAT 110

AtivoComunicaçõesGEO
NORAD 26559·PAYLOAD·🇯🇵 Japan

Lançado Oct 6, 2000 de Guiana Space Centre

Loading…

TLE

AtualizadoSource: Space-Track

Época: Sep 14, 2026, 13:18 UTC

1 26559U 00060A   26257.55434413  .00000023  00000-0  00000-0 0  9999
2 26559   7.0167  69.0940 0005647  54.2379 325.1590  0.99178111 94713

Acompanhe NSAT 110 em tempo real com AllMySat

Download on the App Store